This demonstration page uses our WeatherBlox Daily Observations layout. Learn more.

Left ArrowRight Arrow

34.74481, -87.66753

Hourly Observations for May 7, 2020

Temp ( °F °C ) Dew Point ( °F °C ) Humidity (%) Winds ( mph kmh ) Pressure ( in mb ) Visibility ( mi km ) Precip ( " mm )
12:53 am 00:53 Clear 47 8.3 42 5.6 83 83 Calm 30.16 1021 10 16 0.00 0.00
1:53 am 01:53 Clear 46 7.8 42 5.6 86 86 Calm 30.16 1021 10 16 0.00 0.00
2:53 am 02:53 Clear 45 7.2 41 5 86 86 Calm 30.16 1021 10 16 0.00 0.00
3:53 am 03:53 Clear 45 7.2 41 5 86 86 Calm 30.15 1021 10 16 0.00 0.00
4:53 am 04:53 Clear 45 7.2 42 5.6 90 90 Calm 30.16 1021 10 16 0.00 0.00
5:53 am 05:53 Clear 42 5.6 39 3.9 89 89 Calm 30.18 1022 10 16 0.00 0.00
6:53 am 06:53 Sunny 47 8.3 44 6.7 90 90 WNW 5 7 30.20 1023 10 16 0.00 0.00
7:53 am 07:53 Sunny 52 11.1 44 6.7 75 75 WNW 6 9 30.22 1023 10 16 0.00 0.00
8:53 am 08:53 Sunny 58 14.4 42 5.6 56 56 NW 7 11 30.22 1024 10 16 0.00 0.00
9:53 am 09:53 Sunny 63 17.2 41 5 45 45 NW 6 9 30.21 1023 10 16 0.00 0.00
10:53 am 10:53 Sunny 65 18.3 39 3.9 39 39 VRB 3 6 30.21 1023 10 16 0.00 0.00
11:53 am 11:53 Partly Cloudy 65 18.3 38 3.3 37 37 NNW 5 7 30.19 1022 10 16 0.00 0.00
12:53 pm 12:53 Mostly Cloudy 68 20 37 2.8 32 32 NNW 5 7 30.17 1022 10 16 0.00 0.00
1:53 pm 13:53 Sunny 68 20 38 3.3 33 33 WSW 7 11 30.15 1021 10 16 0.00 0.00
2:53 pm 14:53 Sunny 69 20.6 37 2.8 31 31 VRB 7 11 30.13 1020 10 16 0.00 0.00
3:53 pm 15:53 Sunny 71 21.7 37 2.8 29 29 VRB 3 6 30.10 1019 10 16 0.00 0.00
4:53 pm 16:53 Sunny 70 21.1 37 2.8 30 30 E 6 9 30.08 1019 10 16 0.00 0.00
5:53 pm 17:53 Sunny 71 21.7 39 3.9 31 31 S 5 7 30.06 1018 10 16 0.00 0.00
6:53 pm 18:53 Sunny 67 19.4 39 3.9 36 36 SW 8 13 30.05 1018 10 16 0.00 0.00
7:53 pm 19:53 Clear 63 17.2 41 5 45 45 WSW 3 6 30.05 1018 10 16 0.00 0.00
8:53 pm 20:53 Clear 58 14.4 47 8.3 67 67 Calm 30.06 1018 10 16 0.00 0.00
9:53 pm 21:53 Clear 57 13.9 46 7.8 67 67 ESE 5 7 30.01 1016 10 16 0.00 0.00
10:53 pm 22:53 Mostly Clear 57 13.9 46 7.8 67 67 Calm 30.03 1017 10 16 0.00 0.00
11:53 pm 23:53 Cloudy 57 13.9 49 9.4 74 74 SE 3 6 30.03 1017 10 16 0.00 0.00

Powered by AerisWeather